Flag for U.S.A. Weather past 2 weeks in Oakland, California, U.S.A.

Now
66 °F

Passing clouds.


Feels Like: 66 °F
Forecast: 57 / 70 °F
Wind: 7 mph from West

Location: Metro Oakland International Airport

Current Time: Oct 24, 2014 at 12:16:47 PM

Latest Report: Oct 24, 2014 at 11:53 AM


Visibility: 10 mi

Pressure: 29.96 "Hg

Humidity: 68%

Dew point: 55 °F

Location of OaklandLocation

Historic Weather in Oakland — Graph

°F

Oakland temperature yesterday

Maximum temperature yesterday: 71 °F (at 2:53 PM)
Minimum temperature yesterday: 57 °F (at 2:53 AM)
Average temperature yesterday: 63 °F

Past Weeks' High & Low Weather Summary

 TemperatureHumidityPressure
High86 °F (Oct 12, 2:53 PM)96% (Oct 12, 7:53 AM)30.11 "Hg (Oct 12, 7:53 AM)
Low50 °F (Oct 21, 6:53 AM)14% (Oct 12, 2:53 PM)27.00 "Hg (Oct 16, 10:20 PM)
Average63 °F72%29.97 "Hg
* Reported Oct 9 10:53 AM — Oct 24 10:53 AM, Oakland, Weather by CustomWeather, © 2014

Note: Actual official high and low records may vary slightly from our data, if they occured in-between our weather recording intervals... More about our weather records

Advertising

Oakland weather history for previous 24 hours

 ConditionsComfort  
Time TempWeatherWind HumidityBarometerVisibility
10:53 AM
Oct 24
65 °FSunny.7 mph68%29.96 "Hg10 mi
9:53 AM65 °FSunny.No wind66%29.97 "Hg10 mi
8:53 AM63 °FSunny.5 mph70%29.97 "Hg10 mi
7:53 AM58 °FClear.6 mph78%29.96 "Hg10 mi
6:53 AM56 °FClear.No wind81%29.96 "Hg10 mi
5:53 AM57 °FClear.5 mph81%29.95 "Hg10 mi
4:53 AM59 °FClear.8 mph78%29.95 "Hg10 mi
3:53 AM58 °FPassing clouds.7 mph81%29.95 "Hg10 mi
2:53 AM60 °FPassing clouds.8 mph78%29.96 "Hg10 mi
1:53 AM60 °FClear.9 mph78%29.97 "Hg10 mi
12:53 AM57 °FPassing clouds.8 mph83%29.98 "Hg10 mi
11:53 PM
Oct 23
57 °FFog.5 mph90%29.98 "Hg10 mi
10:53 PM60 °FClear.No wind86%29.98 "Hg10 mi
9:53 PM62 °FClear.No wind83%29.98 "Hg10 mi
8:53 PM63 °FClear.No wind81%29.97 "Hg10 mi
7:53 PM63 °FPassing clouds.3 mph84%29.96 "Hg10 mi
6:53 PM65 °FScattered clouds.7 mph81%29.96 "Hg10 mi
5:53 PM68 °FScattered clouds.7 mph70%29.97 "Hg10 mi
4:53 PM70 °FPartly sunny.12 mph66%29.98 "Hg10 mi
3:53 PM70 °FBroken clouds.9 mph64%29.99 "Hg10 mi
2:53 PM71 °FBroken clouds.6 mph57%30.01 "Hg10 mi
1:53 PM70 °FBroken clouds.5 mph64%30.03 "Hg10 mi
12:53 PM67 °FPartly sunny.5 mph73%30.06 "Hg10 mi
Weather by CustomWeather, © 2014

See weather overviewHow to use our weather pages